This is the latest recevied weather packets stored in our database for station/object SP6W-10. If no packets are shown the sender has not sent any weather packets the latest 10 day(s).
| Time | Temp. | Humidity | Pressure | Rain* | Wind** | Luminosity | Snow |
|---|---|---|---|---|---|---|---|
| 1777038166 | 28.33° C | 23% | 1018.1 hPa | - | - | - | - |
| 1777036366 | 27.78° C | 25% | 1018.2 hPa | - | - | - | - |
| 1777034566 | 26.67° C | 25% | 1018.3 hPa | - | - | - | - |
| 1777032766 | 26.67° C | 23% | 1018.5 hPa | - | - | - | - |
| 1777030966 | 26.67° C | 24% | 1018.5 hPa | - | - | - | - |
| 1777029162 | 26.67° C | 24% | 1018.6 hPa | - | - | - | - |
| 1777027362 | 26.11° C | 26% | 1018.5 hPa | - | - | - | - |
| 1777025562 | 26.11° C | 25% | 1018.7 hPa | - | - | - | - |
| 1777023761 | 25.56° C | 25% | 1018.5 hPa | - | - | - | - |
| 1777021965 | 26.11° C | 25% | 1018.4 hPa | - | - | - | - |
| 1777020166 | 25.56° C | 26% | 1018.2 hPa | - | - | - | - |
| 1777018366 | 26.11° C | 25% | 1018 hPa | - | - | - | - |
| 1777016566 | 26.11° C | 27% | 1018.2 hPa | - | - | - | - |
| 1777014766 | 26.11° C | 27% | 1018.1 hPa | - | - | - | - |
| 1777012968 | 26.11° C | 28% | 1018.2 hPa | - | - | - | - |
| 1777011166 | 26.67° C | 29% | 1018.3 hPa | - | - | - | - |
| 1777009366 | 25.56° C | 31% | 1018.1 hPa | - | - | - | - |
| 1777007566 | 25.56° C | 29% | 1018.1 hPa | - | - | - | - |
| 1777005766 | 26.11° C | 28% | 1018 hPa | - | - | - | - |
| 1777003966 | 26.67° C | 27% | 1017.8 hPa | - | - | - | - |
| 1777002166 | 26.67° C | 27% | 1017.7 hPa | - | - | - | - |
| 1777000366 | 26.67° C | 27% | 1017.7 hPa | - | - | - | - |
| 1776998566 | 26.67° C | 27% | 1017.7 hPa | - | - | - | - |
| 1776996766 | 26.67° C | 27% | 1017.9 hPa | - | - | - | - |
| 1776994966 | 27.22° C | 26% | 1018 hPa | - | - | - | - |
* Rain since midnight (hover to see other rain measurements)
** Current wind speed in m/s (hover to see current wind gust speed)